• In Czech Republic
  • List of Countries
  • For 7 days
  • Water Temperature
  • Satellite Maps
  • Weather Map
  • Weather Widgets
  • user-avatar
    Login

    Hourly Weather Ismency

    Today, 23 September, Sunday

    Time Temperature Precipitation Wind Pressure Humidity
    00:00 +16°C° 0 mm 2 mps 755 mmHg 90%
    01:00 +15°C° 0 mm 2 mps 755 mmHg 90%
    02:00 +15°C° 0 mm 2 mps 755 mmHg 91%
    03:00 +15°C° 0 mm 2 mps 754 mmHg 92%
    04:00 +15°C° 0 mm 2 mps 754 mmHg 93%
    05:00 +13°C° 0 mm 3 mps 754 mmHg 93%
    06:00 +13°C° 0 mm 3 mps 754 mmHg 93%
    07:00 +16°C° 0 mm 3 mps 754 mmHg 86%
    08:00 +18°C° 0 mm 4 mps 753 mmHg 80%
    09:00 +20°C° 0 mm 4 mps 753 mmHg 71%
    10:00 +21°C° 0 mm 5 mps 753 mmHg 66%
    11:00 +22°C° 0 mm 5 mps 753 mmHg 61%
    12:00 +23°C° 0 mm 6 mps 752 mmHg 56%
    13:00 +23°C° 0 mm 6 mps 752 mmHg 56%
    14:00 +23°C° 0 mm 6 mps 752 mmHg 56%
    15:00 +25°C° 0 mm 5 mps 751 mmHg 57%
    16:00 +23°C° 0 mm 5 mps 750 mmHg 62%
    17:00 +21°C° 0 mm 5 mps 750 mmHg 67%
    18:00 +20°C° 0 mm 5 mps 750 mmHg 72%
    19:00 +20°C° 0 mm 5 mps 750 mmHg 73%
    20:00 +19°C° 0 mm 5 mps 749 mmHg 74%
    21:00 +19°C° 0 mm 5 mps 749 mmHg 74%
    22:00 +17°C° 0 mm 5 mps 749 mmHg 73%
    23:00 +17°C° 0 mm 5 mps 748 mmHg 72%

    Tomorrow, 24 September, Monday

    Time Temperature Precipitation Wind Pressure Humidity
    00:00 +16°C° 0 mm 5 mps 748 mmHg 70%
    01:00 +16°C° 0 mm 5 mps 747 mmHg 68%
    02:00 +15°C° 0 mm 5 mps 747 mmHg 66%
    03:00 +15°C° 0 mm 5 mps 747 mmHg 64%
    04:00 +14°C° 0 mm 5 mps 747 mmHg 62%
    05:00 +14°C° 0 mm 5 mps 747 mmHg 61%
    06:00 +13°C° 0 mm 5 mps 747 mmHg 60%
    07:00 +13°C° 0.6 mm 5 mps 747 mmHg 67%
    08:00 +12°C° 0.6 mm 5 mps 748 mmHg 74%
    09:00 +10°C° 0.6 mm 5 mps 748 mmHg 81%
    10:00 +11°C° 1.1 mm 4 mps 749 mmHg 82%
    11:00 +10°C° 1.1 mm 4 mps 749 mmHg 83%
    12:00 +10°C° 1.1 mm 4 mps 750 mmHg 85%
    13:00 +11°C° 0.1 mm 3 mps 750 mmHg 79%
    14:00 +12°C° 0.1 mm 3 mps 750 mmHg 73%
    15:00 +15°C° 0.1 mm 2 mps 750 mmHg 67%
    16:00 +14°C° 0 mm 2 mps 751 mmHg 71%
    17:00 +13°C° 0 mm 1 mps 751 mmHg 75%
    18:00 +12°C° 0 mm 1 mps 751 mmHg 80%
    19:00 +11°C° 0 mm 1 mps 751 mmHg 81%
    20:00 +10°C° 0 mm 2 mps 751 mmHg 82%
    21:00 +10°C° 0 mm 2 mps 751 mmHg 83%
    22:00 +10°C° 0 mm 2 mps 751 mmHg 84%
    23:00 +9°C° 0 mm 2 mps 751 mmHg 84%

    Day after tomorrow, 25 September, Tuesday

    Time Temperature Precipitation Wind Pressure Humidity
    00:00 +9°C° 0 mm 3 mps 750 mmHg 85%
    01:00 +9°C° 0 mm 3 mps 750 mmHg 84%
    02:00 +10°C° 0 mm 4 mps 750 mmHg 83%
    03:00 +10°C° 0 mm 4 mps 749 mmHg 83%
    04:00 +9°C° 0.2 mm 5 mps 749 mmHg 83%
    05:00 +9°C° 0.2 mm 5 mps 748 mmHg 84%
    06:00 +9°C° 0.2 mm 6 mps 748 mmHg 84%
    07:00 +9°C° 0.7 mm 6 mps 747 mmHg 84%
    08:00 +9°C° 0.7 mm 7 mps 747 mmHg 84%
    09:00 +9°C° 0.7 mm 7 mps 746 mmHg 83%
    10:00 +9°C° 0.9 mm 7 mps 746 mmHg 84%
    11:00 +9°C° 0.9 mm 7 mps 745 mmHg 84%
    12:00 +9°C° 0.9 mm 7 mps 745 mmHg 84%
    13:00 +10°C° 1.4 mm 7 mps 745 mmHg 85%
    14:00 +10°C° 1.4 mm 7 mps 745 mmHg 87%
    15:00 +10°C° 1.4 mm 7 mps 744 mmHg 88%
    16:00 +10°C° 0.2 mm 6 mps 744 mmHg 89%
    17:00 +10°C° 0.2 mm 6 mps 744 mmHg 89%
    18:00 +10°C° 0.2 mm 5 mps 744 mmHg 90%
    19:00 +9°C° 0.1 mm 5 mps 744 mmHg 87%
    20:00 +9°C° 0.1 mm 5 mps 744 mmHg 85%
    21:00 +8°C° 0.1 mm 5 mps 745 mmHg 83%
    22:00 +7°C° 0 mm 5 mps 745 mmHg 84%
    23:00 +7°C° 0 mm 5 mps 745 mmHg 86%

    26 September, Wednesday

    Time Temperature Precipitation Wind Pressure Humidity
    00:00 +7°C° 0 mm 5 mps 745 mmHg 87%
    01:00 +5°C° 0 mm 6 mps 746 mmHg 87%
    02:00 +5°C° 0 mm 6 mps 746 mmHg 87%
    03:00 +5°C° 0 mm 6 mps 746 mmHg 87%
    04:00 +5°C° 0 mm 6 mps 747 mmHg 86%
    05:00 +5°C° 0 mm 6 mps 747 mmHg 86%
    06:00 +7°C° 0 mm 6 mps 748 mmHg 85%
    07:00 +7°C° 0 mm 6 mps 748 mmHg 83%
    08:00 +7°C° 0 mm 6 mps 749 mmHg 82%
    09:00 +8°C° 0 mm 6 mps 750 mmHg 80%
    10:00 +8°C° 0 mm 6 mps 751 mmHg 79%
    11:00 +8°C° 0 mm 6 mps 752 mmHg 78%
    12:00 +8°C° 0 mm 6 mps 752 mmHg 77%
    13:00 +8°C° 0.1 mm 6 mps 753 mmHg 77%
    14:00 +8°C° 0.1 mm 5 mps 754 mmHg 77%
    15:00 +8°C° 0.1 mm 5 mps 754 mmHg 77%
    16:00 +7°C° 0 mm 4 mps 755 mmHg 78%
    17:00 +7°C° 0 mm 4 mps 755 mmHg 79%
    18:00 +7°C° 0 mm 3 mps 756 mmHg 80%
    19:00 +7°C° 0 mm 3 mps 756 mmHg 80%
    20:00 +5°C° 0 mm 3 mps 756 mmHg 81%
    21:00 +5°C° 0 mm 3 mps 756 mmHg 82%
    22:00 +4°C° 0 mm 3 mps 756 mmHg 84%
    23:00 +3°C° 0 mm 3 mps 756 mmHg 86%

    27 September, Thursday

    Time Temperature Precipitation Wind Pressure Humidity
    00:00 +3°C° 0 mm 3 mps 756 mmHg 88%
    01:00 +2°C° 0 mm 3 mps 756 mmHg 89%
    02:00 +2°C° 0 mm 3 mps 756 mmHg 89%
    03:00 +2°C° 0 mm 3 mps 756 mmHg 89%
    04:00 +1°C° 0 mm 4 mps 755 mmHg 88%
    05:00 +1°C° 0 mm 4 mps 755 mmHg 86%
    06:00 +1°C° 0 mm 4 mps 754 mmHg 85%
    07:00 +2°C° 0 mm 5 mps 754 mmHg 77%
    08:00 +3°C° 0 mm 6 mps 753 mmHg 69%
    09:00 +5°C° 0 mm 7 mps 753 mmHg 61%
    10:00 +6°C° 0 mm 7 mps 752 mmHg 59%
    11:00 +6°C° 0 mm 8 mps 751 mmHg 56%
    12:00 +7°C° 0 mm 8 mps 751 mmHg 53%
    13:00 +7°C° 0.1 mm 8 mps 750 mmHg 57%
    14:00 +6°C° 0.1 mm 8 mps 749 mmHg 61%
    15:00 +6°C° 0.1 mm 8 mps 749 mmHg 64%
    16:00 +5°C° 0.5 mm 8 mps 748 mmHg 69%
    17:00 +5°C° 0.5 mm 8 mps 748 mmHg 75%
    18:00 +4°C° 0.5 mm 8 mps 747 mmHg 80%
    19:00 +4°C° 0.7 mm 7 mps 747 mmHg 82%
    20:00 +4°C° 0.7 mm 7 mps 746 mmHg 85%
    21:00 +4°C° 0.7 mm 6 mps 746 mmHg 87%
    22:00 +4°C° 0.1 mm 6 mps 746 mmHg 88%
    23:00 +5°C° 0.1 mm 6 mps 746 mmHg 88%

    28 September, Friday

    Time Temperature Precipitation Wind Pressure Humidity
    00:00 +6°C° 0.1 mm 5 mps 746 mmHg 89%
    01:00 +5°C° 0 mm 5 mps 747 mmHg 90%
    02:00 +5°C° 0 mm 5 mps 747 mmHg 91%
    03:00 +5°C° 0 mm 5 mps 747 mmHg 93%
    04:00 +5°C° 0 mm 4 mps 748 mmHg 93%
    05:00 +4°C° 0 mm 4 mps 748 mmHg 94%
    06:00 +4°C° 0 mm 4 mps 748 mmHg 94%
    07:00 +5°C° 0 mm 4 mps 749 mmHg 89%
    08:00 +6°C° 0 mm 5 mps 749 mmHg 83%
    09:00 +7°C° 0 mm 5 mps 749 mmHg 78%
    10:00 +8°C° 0 mm 5 mps 749 mmHg 72%
    11:00 +9°C° 0 mm 5 mps 749 mmHg 65%
    12:00 +11°C° 0 mm 6 mps 749 mmHg 59%
    13:00 +11°C° 0 mm 6 mps 748 mmHg 59%
    14:00 +11°C° 0 mm 7 mps 747 mmHg 58%
    15:00 +11°C° 0 mm 7 mps 746 mmHg 58%
    16:00 +11°C° 0.1 mm 8 mps 745 mmHg 63%
    17:00 +11°C° 0.1 mm 9 mps 744 mmHg 69%
    18:00 +11°C° 0.1 mm 10 mps 743 mmHg 74%
    19:00 +11°C° 0.7 mm 10 mps 742 mmHg 77%
    20:00 +12°C° 0.7 mm 11 mps 741 mmHg 79%
    21:00 +12°C° 0.7 mm 11 mps 740 mmHg 82%
    22:00 +9°C° 0.4 mm 11 mps 741 mmHg 79%
    23:00 +7°C° 0.4 mm 11 mps 741 mmHg 77%
    Show more